Retour au catalogue

CZ-6A DEB

ActifSSO
NORAD 56668·DEBRIS·🇨🇳 China

Lancé Nov 11, 2022 depuis Taiyuan Satellite Launch Center

Loading…

Prochains Passages (prochaines 24 heures)

TLE

FraisSource: Space-Track

Époque: Sep 14, 2026, 15:41 UTC

1 56668U 22151AGU 26257.65405026  .00002113  00000-0  64990-3 0  9990
2 56668  98.8208 322.4453 0034238 109.3444 251.1451 14.42276317193331

Suivez CZ-6A DEB en temps réel avec AllMySat

Download on the App Store